Time,TemperatureF,DewpointF,PressureIn,WindDirection,WindDirectionDegrees,WindSpeedMPH,WindSpeedGustMPH,Humidity,HourlyPrecipIn,Conditions,Clouds,dailyrainin,SoftwareType,DateUTC
2013-07-15 00:00:00,72.6,72.6,30.22,SW,227,0.0,8.0,100,0.00,,,0.19,Wunderground v.1.15,2013-07-15 04:00:00,
2013-07-15 00:05:00,72.5,72.5,30.21,SW,227,0.0,8.0,100,0.00,,,0.00,Wunderground v.1.15,2013-07-15 04:05:00,
2013-07-15 00:10:00,72.5,72.5,30.21,SW,227,0.0,8.0,100,0.00,,,0.00,Wunderground v.1.15,2013-07-15 04:10:00,
2013-07-15 00:15:00,72.6,72.6,30.22,SW,227,0.0,8.0,100,0.00,,,0.00,Wunderground v.1.15,2013-07-15 04:15:00,
2013-07-15 00:20:00,72.6,72.6,30.21,SW,227,0.0,8.0,100,0.00,,,0.00,Wunderground v.1.15,2013-07-15 04:20:00,
2013-07-15 00:25:00,72.7,72.7,30.21,SW,227,0.0,8.0,100,0.00,,,0.00,Wunderground v.1.15,2013-07-15 04:25:00,
2013-07-15 00:30:00,72.8,72.8,30.21,SW,227,0.0,8.0,100,0.00,,,0.00,Wunderground v.1.15,2013-07-15 04:30:00,
2013-07-15 00:35:00,72.8,72.8,30.21,SW,227,0.0,8.0,100,0.00,,,0.00,Wunderground v.1.15,2013-07-15 04:35:00,
2013-07-15 00:40:00,72.8,72.8,30.21,SW,227,0.0,8.0,100,0.00,,,0.00,Wunderground v.1.15,2013-07-15 04:40:00,
2013-07-15 00:45:00,72.8,72.8,30.21,SW,227,0.0,8.0,100,0.00,,,0.00,Wunderground v.1.15,2013-07-15 04:45:00,
2013-07-15 00:50:00,72.8,72.8,30.21,SW,227,0.0,8.0,100,0.00,,,0.00,Wunderground v.1.15,2013-07-15 04:50:00,
2013-07-15 00:55:00,72.8,72.8,30.21,SW,227,0.0,8.0,100,0.00,,,0.00,Wunderground v.1.15,2013-07-15 04:55:00,
2013-07-15 01:00:00,72.7,72.7,30.21,SW,227,0.0,8.0,100,0.00,,,0.00,Wunderground v.1.15,2013-07-15 05:00:00,
2013-07-15 01:05:00,72.6,72.6,30.21,SW,227,0.0,8.0,100,0.00,,,0.00,Wunderground v.1.15,2013-07-15 05:05:00,
2013-07-15 01:10:00,72.5,72.5,30.21,SW,227,0.0,8.0,100,0.00,,,0.00,Wunderground v.1.15,2013-07-15 05:10:00,
2013-07-15 01:15:00,72.4,72.4,30.20,SW,227,0.0,8.0,100,0.00,,,0.00,Wunderground v.1.15,2013-07-15 05:15:00,
2013-07-15 01:25:00,72.5,72.5,30.20,SW,227,0.0,8.0,100,0.00,,,0.00,Wunderground v.1.15,2013-07-15 05:25:00,
2013-07-15 01:30:00,72.5,72.5,30.20,SW,227,0.0,8.0,100,0.00,,,0.00,Wunderground v.1.15,2013-07-15 05:30:00,
2013-07-15 01:35:00,72.5,72.5,30.20,SW,227,0.0,8.0,100,0.00,,,0.00,Wunderground v.1.15,2013-07-15 05:35:00,
2013-07-15 01:40:00,72.5,72.5,30.20,SW,227,0.0,8.0,100,0.00,,,0.00,Wunderground v.1.15,2013-07-15 05:40:00,
2013-07-15 01:45:00,72.5,72.5,30.20,SW,227,0.0,8.0,100,0.00,,,0.00,Wunderground v.1.15,2013-07-15 05:45:00,
2013-07-15 01:50:00,72.4,72.4,30.20,SW,227,0.0,8.0,100,0.00,,,0.00,Wunderground v.1.15,2013-07-15 05:50:00,
2013-07-15 01:55:00,72.4,72.4,30.20,SW,227,0.0,8.0,100,0.00,,,0.00,Wunderground v.1.15,2013-07-15 05:55:00,
2013-07-15 02:05:00,72.3,72.3,30.20,SW,227,0.0,8.0,100,0.00,,,0.00,Wunderground v.1.15,2013-07-15 06:05:00,
2013-07-15 02:10:00,72.2,72.2,30.20,SW,227,0.0,8.0,100,0.00,,,0.00,Wunderground v.1.15,2013-07-15 06:10:00,
2013-07-15 02:15:00,72.2,72.2,30.20,SW,227,0.0,8.0,100,0.00,,,0.00,Wunderground v.1.15,2013-07-15 06:15:00,
2013-07-15 02:20:00,72.1,72.1,30.20,SW,227,0.0,8.0,100,0.00,,,0.00,Wunderground v.1.15,2013-07-15 06:20:00,
2013-07-15 02:25:00,72.0,72.0,30.20,SW,227,0.0,8.0,100,0.00,,,0.00,Wunderground v.1.15,2013-07-15 06:25:00,
2013-07-15 02:30:00,71.9,71.9,30.20,SW,227,0.0,8.0,100,0.00,,,0.00,Wunderground v.1.15,2013-07-15 06:30:00,
2013-07-15 02:35:00,71.9,71.9,30.20,SW,227,0.0,8.0,100,0.00,,,0.00,Wunderground v.1.15,2013-07-15 06:35:00,
2013-07-15 02:40:00,71.9,71.9,30.20,SW,227,0.0,8.0,100,0.00,,,0.00,Wunderground v.1.15,2013-07-15 06:40:00,
2013-07-15 02:45:00,71.9,71.9,30.20,SW,227,0.0,8.0,100,0.00,,,0.00,Wunderground v.1.15,2013-07-15 06:45:00,
2013-07-15 02:55:00,71.8,71.8,30.20,SW,227,0.0,8.0,100,0.00,,,0.00,Wunderground v.1.15,2013-07-15 06:55:00,
2013-07-15 03:00:00,71.9,71.9,30.20,SW,227,0.0,8.0,100,0.00,,,0.00,Wunderground v.1.15,2013-07-15 07:00:00,
2013-07-15 03:05:00,71.8,71.8,30.20,SW,227,0.0,8.0,100,0.00,,,0.00,Wunderground v.1.15,2013-07-15 07:05:00,
2013-07-15 03:10:00,71.7,71.7,30.20,SW,227,0.0,8.0,100,0.00,,,0.00,Wunderground v.1.15,2013-07-15 07:10:00,
2013-07-15 03:15:00,71.7,71.7,30.20,SW,225,0.0,8.0,100,0.00,,,0.00,Wunderground v.1.15,2013-07-15 07:15:00,
2013-07-15 03:20:00,71.7,71.7,30.20,SW,225,0.0,8.0,100,0.00,,,0.00,Wunderground v.1.15,2013-07-15 07:20:00,
2013-07-15 03:25:00,71.6,71.6,30.20,SW,225,0.0,8.0,100,0.00,,,0.00,Wunderground v.1.15,2013-07-15 07:25:00,
2013-07-15 03:30:00,71.6,71.6,30.20,SW,225,0.0,8.0,100,0.00,,,0.00,Wunderground v.1.15,2013-07-15 07:30:00,
2013-07-15 03:40:00,71.6,71.6,30.20,SW,225,0.0,8.0,100,0.00,,,0.00,Wunderground v.1.15,2013-07-15 07:40:00,
2013-07-15 03:45:00,71.5,71.5,30.20,SW,225,0.0,8.0,100,0.00,,,0.00,Wunderground v.1.15,2013-07-15 07:45:00,
2013-07-15 03:55:00,71.4,71.4,30.20,SW,226,0.0,8.0,100,0.00,,,0.00,Wunderground v.1.15,2013-07-15 07:55:00,
2013-07-15 04:00:00,71.3,71.3,30.20,SW,226,0.0,8.0,100,0.00,,,0.00,Wunderground v.1.15,2013-07-15 08:00:00,
2013-07-15 04:05:00,71.2,71.2,30.20,SW,226,0.0,8.0,100,0.00,,,0.00,Wunderground v.1.15,2013-07-15 08:05:00,
2013-07-15 04:10:00,71.1,71.1,30.20,SW,226,0.0,8.0,100,0.00,,,0.00,Wunderground v.1.15,2013-07-15 08:10:00,
2013-07-15 04:15:00,71.2,71.2,30.20,SW,226,0.0,8.0,100,0.00,,,0.00,Wunderground v.1.15,2013-07-15 08:15:00,
2013-07-15 04:25:00,71.1,71.1,30.20,SW,226,0.0,8.0,100,0.00,,,0.00,Wunderground v.1.15,2013-07-15 08:25:00,
2013-07-15 04:30:00,71.0,71.0,30.20,SW,226,0.0,8.0,100,0.00,,,0.00,Wunderground v.1.15,2013-07-15 08:30:00,
2013-07-15 04:35:00,70.9,70.9,30.20,SW,226,0.0,8.0,100,0.00,,,0.00,Wunderground v.1.15,2013-07-15 08:35:00,
2013-07-15 04:40:00,70.7,70.7,30.20,SW,226,0.0,8.0,100,0.00,,,0.00,Wunderground v.1.15,2013-07-15 08:40:00,
2013-07-15 04:45:00,70.7,70.7,30.20,SW,226,0.0,8.0,100,0.00,,,0.00,Wunderground v.1.15,2013-07-15 08:45:00,
2013-07-15 04:50:00,70.7,70.7,30.20,SW,226,0.0,8.0,100,0.00,,,0.00,Wunderground v.1.15,2013-07-15 08:50:00,
2013-07-15 04:55:00,70.6,70.6,30.20,SW,226,0.0,8.0,100,0.00,,,0.00,Wunderground v.1.15,2013-07-15 08:55:00,
2013-07-15 05:00:00,70.6,70.6,30.20,SW,226,0.0,8.0,100,0.00,,,0.00,Wunderground v.1.15,2013-07-15 09:00:00,
2013-07-15 05:05:00,70.4,70.4,30.20,SW,226,0.0,8.0,100,0.00,,,0.00,Wunderground v.1.15,2013-07-15 09:05:00,
2013-07-15 05:15:00,70.3,70.3,30.20,SW,226,0.0,8.0,100,0.00,,,0.00,Wunderground v.1.15,2013-07-15 09:15:00,
2013-07-15 05:20:00,70.3,70.3,30.20,SW,226,0.0,8.0,100,0.00,,,0.00,Wunderground v.1.15,2013-07-15 09:20:00,
2013-07-15 05:25:00,70.3,70.3,30.20,SW,226,0.0,8.0,100,0.00,,,0.00,Wunderground v.1.15,2013-07-15 09:25:00,
2013-07-15 05:30:00,70.3,70.3,30.20,SW,226,0.0,8.0,100,0.00,,,0.00,Wunderground v.1.15,2013-07-15 09:30:00,
2013-07-15 05:35:00,70.3,70.3,30.20,SW,226,0.0,8.0,100,0.00,,,0.00,Wunderground v.1.15,2013-07-15 09:35:00,
2013-07-15 05:40:00,70.3,70.3,30.20,SW,226,0.0,8.0,100,0.00,,,0.00,Wunderground v.1.15,2013-07-15 09:40:00,
2013-07-15 05:45:00,70.2,70.2,30.21,SW,226,0.0,8.0,100,0.00,,,0.00,Wunderground v.1.15,2013-07-15 09:45:00,
2013-07-15 05:50:00,70.1,70.1,30.21,SW,226,0.0,8.0,100,0.00,,,0.00,Wunderground v.1.15,2013-07-15 09:50:00,
2013-07-15 06:00:00,70.1,70.1,30.20,SW,226,0.0,8.0,100,0.00,,,0.00,Wunderground v.1.15,2013-07-15 10:00:00,
2013-07-15 06:05:00,70.2,70.2,30.21,SW,226,0.0,8.0,100,0.00,,,0.00,Wunderground v.1.15,2013-07-15 10:05:00,
2013-07-15 06:10:00,70.2,70.2,30.21,SW,226,0.0,8.0,100,0.00,,,0.00,Wunderground v.1.15,2013-07-15 10:10:00,
2013-07-15 06:15:00,70.3,70.3,30.21,SW,226,0.0,8.0,100,0.00,,,0.00,Wunderground v.1.15,2013-07-15 10:15:00,
2013-07-15 06:20:00,70.2,70.2,30.21,SW,226,0.0,8.0,100,0.00,,,0.00,Wunderground v.1.15,2013-07-15 10:20:00,
2013-07-15 06:25:00,70.2,70.2,30.21,SW,226,0.0,8.0,100,0.00,,,0.00,Wunderground v.1.15,2013-07-15 10:25:00,
2013-07-15 06:30:00,70.2,70.2,30.21,SW,226,0.0,8.0,100,0.00,,,0.00,Wunderground v.1.15,2013-07-15 10:30:00,
2013-07-15 06:35:00,70.3,70.3,30.21,SW,226,0.0,8.0,100,0.00,,,0.00,Wunderground v.1.15,2013-07-15 10:35:00,
2013-07-15 06:45:00,70.6,70.6,30.21,SW,226,0.0,8.0,100,0.00,,,0.00,Wunderground v.1.15,2013-07-15 10:45:00,
2013-07-15 06:55:00,71.1,71.1,30.21,SW,226,0.0,8.0,100,0.00,,,0.00,Wunderground v.1.15,2013-07-15 10:55:00,
2013-07-15 07:00:00,71.4,71.4,30.21,SW,226,0.0,8.0,100,0.00,,,0.00,Wunderground v.1.15,2013-07-15 11:00:00,
2013-07-15 07:05:00,71.9,71.9,30.21,SW,226,0.0,8.0,100,0.00,,,0.00,Wunderground v.1.15,2013-07-15 11:05:00,
2013-07-15 07:10:00,72.3,72.3,30.21,SW,226,0.0,8.0,100,0.00,,,0.00,Wunderground v.1.15,2013-07-15 11:10:00,
2013-07-15 07:15:00,72.4,72.4,30.21,SW,226,0.0,8.0,100,0.00,,,0.00,Wunderground v.1.15,2013-07-15 11:15:00,
2013-07-15 07:20:00,72.6,72.6,30.21,SW,226,0.0,8.0,100,0.00,,,0.00,Wunderground v.1.15,2013-07-15 11:20:00,
2013-07-15 07:25:00,72.8,72.8,30.21,SW,226,0.0,8.0,100,0.00,,,0.00,Wunderground v.1.15,2013-07-15 11:25:00,
2013-07-15 07:35:00,73.1,73.1,30.21,SW,226,0.0,8.0,100,0.00,,,0.00,Wunderground v.1.15,2013-07-15 11:35:00,
2013-07-15 07:40:00,73.5,73.5,30.22,SW,226,0.0,8.0,100,0.00,,,0.00,Wunderground v.1.15,2013-07-15 11:40:00,
2013-07-15 07:45:00,73.9,73.9,30.21,SW,226,0.0,8.0,100,0.00,,,0.00,Wunderground v.1.15,2013-07-15 11:45:00,
2013-07-15 07:55:00,74.7,74.7,30.21,SW,226,0.0,8.0,100,0.00,,,0.00,Wunderground v.1.15,2013-07-15 11:55:00,
2013-07-15 08:00:00,75.0,75.0,30.21,SW,226,0.0,8.0,100,0.00,,,0.00,Wunderground v.1.15,2013-07-15 12:00:00,
2013-07-15 08:05:00,74.8,74.8,30.21,NNW,343,0.0,8.0,100,0.00,,,0.00,Wunderground v.1.15,2013-07-15 12:05:00,
2013-07-15 08:15:00,75.1,75.1,30.21,NNW,343,0.0,8.0,100,0.00,,,0.00,Wunderground v.1.15,2013-07-15 12:15:00,
2013-07-15 08:20:00,75.4,75.1,30.21,NE,42,0.0,8.0,99,0.00,,,0.00,Wunderground v.1.15,2013-07-15 12:20:00,
2013-07-15 08:30:00,76.4,75.2,30.21,NE,43,0.0,8.0,96,0.00,,,0.00,Wunderground v.1.15,2013-07-15 12:30:00,
2013-07-15 08:35:00,77.1,75.6,30.21,NNE,15,0.0,8.0,95,0.00,,,0.00,Wunderground v.1.15,2013-07-15 12:35:00,
2013-07-15 08:40:00,77.7,75.8,30.21,North,355,1.0,1.0,94,0.00,,,0.00,Wunderground v.1.15,2013-07-15 12:40:00,
2013-07-15 08:45:00,78.3,75.8,30.21,North,355,0.0,8.0,92,0.00,,,0.00,Wunderground v.1.15,2013-07-15 12:45:00,
2013-07-15 08:50:00,78.5,75.3,30.21,North,355,0.0,8.0,90,0.00,,,0.00,Wunderground v.1.15,2013-07-15 12:50:00,
2013-07-15 09:00:00,78.8,74.9,30.21,North,360,1.0,1.0,88,0.00,,,0.00,Wunderground v.1.15,2013-07-15 13:00:00,
2013-07-15 09:10:00,80.0,76.5,30.21,East,95,0.0,8.0,89,0.00,,,0.00,Wunderground v.1.15,2013-07-15 13:10:00,
2013-07-15 09:15:00,80.5,76.3,30.21,NNE,26,0.0,8.0,87,0.00,,,0.00,Wunderground v.1.15,2013-07-15 13:15:00,
2013-07-15 09:20:00,80.8,76.2,30.21,NNW,335,0.0,8.0,86,0.00,,,0.00,Wunderground v.1.15,2013-07-15 13:20:00,
2013-07-15 09:25:00,81.4,76.8,30.21,North,360,0.0,8.0,86,0.00,,,0.00,Wunderground v.1.15,2013-07-15 13:25:00,
2013-07-15 09:30:00,81.8,76.1,30.21,NNE,30,1.0,1.0,83,0.00,,,0.00,Wunderground v.1.15,2013-07-15 13:30:00,
2013-07-15 09:35:00,82.3,76.6,30.20,NNE,28,0.0,8.0,83,0.00,,,0.00,Wunderground v.1.15,2013-07-15 13:35:00,
2013-07-15 09:40:00,82.6,76.9,30.20,NNE,24,1.0,1.0,83,0.00,,,0.00,Wunderground v.1.15,2013-07-15 13:40:00,
2013-07-15 09:50:00,82.9,76.1,30.20,North,5,0.0,8.0,80,0.00,,,0.00,Wunderground v.1.15,2013-07-15 13:50:00,
2013-07-15 09:55:00,83.5,77.8,30.20,NNE,21,0.0,8.0,83,0.00,,,0.00,Wunderground v.1.15,2013-07-15 13:55:00,
2013-07-15 10:00:00,83.9,76.7,30.20,North,5,0.0,8.0,79,0.00,,,0.00,Wunderground v.1.15,2013-07-15 14:00:00,
2013-07-15 10:05:00,83.6,75.6,30.20,NNE,16,1.0,8.0,77,0.00,,,0.00,Wunderground v.1.15,2013-07-15 14:05:00,
2013-07-15 10:10:00,83.5,75.9,30.20,NE,48,1.0,1.0,78,0.00,,,0.00,Wunderground v.1.15,2013-07-15 14:10:00,
2013-07-15 10:15:00,83.8,75.4,30.20,North,360,0.0,8.0,76,0.00,,,0.00,Wunderground v.1.15,2013-07-15 14:15:00,
2013-07-15 10:20:00,84.1,75.7,30.20,North,360,0.0,8.0,76,0.00,,,0.00,Wunderground v.1.15,2013-07-15 14:20:00,
2013-07-15 10:30:00,83.9,75.5,30.20,NNW,335,1.0,1.0,76,0.00,,,0.00,Wunderground v.1.15,2013-07-15 14:30:00,
2013-07-15 10:35:00,84.1,75.3,30.20,North,360,1.0,6.0,75,0.00,,,0.00,Wunderground v.1.15,2013-07-15 14:35:00,
2013-07-15 10:40:00,84.5,74.9,30.19,NNE,33,1.0,8.0,73,0.00,,,0.00,Wunderground v.1.15,2013-07-15 14:40:00,
2013-07-15 10:45:00,84.8,75.6,30.19,NNE,14,1.0,8.0,74,0.00,,,0.00,Wunderground v.1.15,2013-07-15 14:45:00,
2013-07-15 10:50:00,85.0,74.5,30.20,North,360,1.0,8.0,71,0.00,,,0.00,Wunderground v.1.15,2013-07-15 14:50:00,
2013-07-15 10:55:00,85.2,76.8,30.19,ENE,57,1.0,8.0,76,0.00,,,0.00,Wunderground v.1.15,2013-07-15 14:55:00,
2013-07-15 11:00:00,85.4,76.6,30.20,NNE,14,0.0,8.0,75,0.00,,,0.00,Wunderground v.1.15,2013-07-15 15:00:00,
2013-07-15 11:10:00,85.2,75.1,30.19,North,355,1.0,8.0,72,0.00,,,0.00,Wunderground v.1.15,2013-07-15 15:10:00,
2013-07-15 11:20:00,85.5,75.0,30.19,North,9,1.0,1.0,71,0.00,,,0.00,Wunderground v.1.15,2013-07-15 15:20:00,
2013-07-15 11:25:00,85.6,75.1,30.19,ENE,71,1.0,8.0,71,0.00,,,0.00,Wunderground v.1.15,2013-07-15 15:25:00,
2013-07-15 11:30:00,85.7,74.8,30.19,NNE,28,1.0,1.0,70,0.00,,,0.00,Wunderground v.1.15,2013-07-15 15:30:00,
2013-07-15 11:35:00,86.0,75.5,30.19,North,9,2.0,5.0,71,0.00,,,0.00,Wunderground v.1.15,2013-07-15 15:35:00,
2013-07-15 11:40:00,85.9,74.5,30.19,North,360,1.0,1.0,69,0.00,,,0.00,Wunderground v.1.15,2013-07-15 15:40:00,
2013-07-15 11:50:00,85.9,73.2,30.19,North,355,1.0,1.0,66,0.00,,,0.00,Wunderground v.1.15,2013-07-15 15:50:00,
2013-07-15 11:55:00,85.1,73.8,30.19,NNW,348,1.0,8.0,69,0.00,,,0.00,Wunderground v.1.15,2013-07-15 15:55:00,
2013-07-15 12:00:00,85.0,74.5,30.19,ENE,57,1.0,1.0,71,0.00,,,0.00,Wunderground v.1.15,2013-07-15 16:00:00,
2013-07-15 12:05:00,85.4,74.5,30.19,ENE,65,1.0,8.0,70,0.00,,,0.00,Wunderground v.1.15,2013-07-15 16:05:00,
2013-07-15 12:10:00,85.8,75.7,30.19,ENE,59,0.0,8.0,72,0.00,,,0.00,Wunderground v.1.15,2013-07-15 16:10:00,
2013-07-15 12:15:00,85.9,73.2,30.19,NE,40,1.0,8.0,66,0.00,,,0.00,Wunderground v.1.15,2013-07-15 16:15:00,
2013-07-15 12:25:00,86.6,75.2,30.19,NE,37,0.0,8.0,69,0.00,,,0.00,Wunderground v.1.15,2013-07-15 16:25:00,
2013-07-15 12:30:00,87.0,75.6,30.18,North,355,1.0,8.0,69,0.00,,,0.00,Wunderground v.1.15,2013-07-15 16:30:00,
2013-07-15 12:35:00,87.0,76.0,30.18,NNE,29,0.0,8.0,70,0.00,,,0.00,Wunderground v.1.15,2013-07-15 16:35:00,
2013-07-15 12:40:00,87.2,74.0,30.18,North,10,0.0,8.0,65,0.00,,,0.00,Wunderground v.1.15,2013-07-15 16:40:00,
2013-07-15 12:50:00,87.0,72.9,30.18,ENE,65,1.0,8.0,63,0.00,,,0.00,Wunderground v.1.15,2013-07-15 16:50:00,
2013-07-15 13:00:00,86.9,72.3,30.18,NE,46,1.0,8.0,62,0.00,,,0.00,Wunderground v.1.15,2013-07-15 17:00:00,
2013-07-15 13:05:00,86.8,72.7,30.18,ENE,61,1.0,8.0,63,0.00,,,0.00,Wunderground v.1.15,2013-07-15 17:05:00,
2013-07-15 13:10:00,86.6,73.4,30.18,NE,47,1.0,8.0,65,0.00,,,0.00,Wunderground v.1.15,2013-07-15 17:10:00,
2013-07-15 13:15:00,86.5,72.9,30.18,North,5,1.0,8.0,64,0.00,,,0.00,Wunderground v.1.15,2013-07-15 17:15:00,
2013-07-15 13:20:00,86.3,72.2,30.18,NNW,338,1.0,1.0,63,0.00,,,0.00,Wunderground v.1.15,2013-07-15 17:20:00,
2013-07-15 13:25:00,86.2,72.6,30.18,North,5,1.0,8.0,64,0.00,,,0.00,Wunderground v.1.15,2013-07-15 17:25:00,
2013-07-15 13:30:00,86.1,73.0,30.17,South,182,1.0,8.0,65,0.00,,,0.00,Wunderground v.1.15,2013-07-15 17:30:00,
2013-07-15 13:35:00,85.9,72.3,30.17,NE,34,1.0,8.0,64,0.00,,,0.00,Wunderground v.1.15,2013-07-15 17:35:00,
2013-07-15 13:45:00,85.6,71.6,30.17,North,9,1.0,5.0,63,0.00,,,0.00,Wunderground v.1.15,2013-07-15 17:45:00,
2013-07-15 13:50:00,85.2,73.0,30.17,NNW,346,1.0,8.0,67,0.00,,,0.00,Wunderground v.1.15,2013-07-15 17:50:00,
2013-07-15 14:00:00,84.6,72.0,30.17,NNE,29,1.0,8.0,66,0.00,,,0.00,Wunderground v.1.15,2013-07-15 18:00:00,
2013-07-15 14:05:00,84.5,71.4,30.17,North,355,2.0,8.0,65,0.00,,,0.00,Wunderground v.1.15,2013-07-15 18:05:00,
2013-07-15 14:15:00,84.1,71.5,30.17,North,355,2.0,8.0,66,0.00,,,0.00,Wunderground v.1.15,2013-07-15 18:15:00,
2013-07-15 14:25:00,84.1,72.4,30.17,NE,34,1.0,8.0,68,0.00,,,0.00,Wunderground v.1.15,2013-07-15 18:25:00,
2013-07-15 14:30:00,84.0,71.9,30.17,North,350,1.0,1.0,67,0.00,,,0.00,Wunderground v.1.15,2013-07-15 18:30:00,
2013-07-15 14:40:00,83.8,72.1,30.17,North,5,1.0,8.0,68,0.00,,,0.00,Wunderground v.1.15,2013-07-15 18:40:00,
2013-07-15 14:45:00,83.9,72.2,30.16,North,9,1.0,8.0,68,0.00,,,0.00,Wunderground v.1.15,2013-07-15 18:45:00,
2013-07-15 14:50:00,83.8,72.5,30.16,North,355,1.0,1.0,69,0.00,,,0.00,Wunderground v.1.15,2013-07-15 18:50:00,
2013-07-15 14:55:00,83.7,71.6,30.16,North,355,1.0,8.0,67,0.00,,,0.00,Wunderground v.1.15,2013-07-15 18:55:00,
2013-07-15 15:05:00,83.8,72.1,30.16,North,5,1.0,8.0,68,0.00,,,0.00,Wunderground v.1.15,2013-07-15 19:05:00,
2013-07-15 15:10:00,84.2,72.9,30.16,East,87,0.0,8.0,69,0.00,,,0.00,Wunderground v.1.15,2013-07-15 19:10:00,
2013-07-15 15:20:00,84.3,72.1,30.16,NE,41,1.0,8.0,67,0.00,,,0.00,Wunderground v.1.15,2013-07-15 19:20:00,
2013-07-15 15:30:00,84.4,72.2,30.16,North,360,1.0,8.0,67,0.00,,,0.00,Wunderground v.1.15,2013-07-15 19:30:00,
2013-07-15 15:35:00,84.4,72.2,30.16,NNW,347,1.0,8.0,67,0.00,,,0.00,Wunderground v.1.15,2013-07-15 19:35:00,
2013-07-15 15:45:00,84.2,72.5,30.15,ENE,66,0.0,8.0,68,0.00,,,0.00,Wunderground v.1.15,2013-07-15 19:45:00,
2013-07-15 15:50:00,84.1,72.4,30.15,NNE,21,0.0,8.0,68,0.00,,,0.00,Wunderground v.1.15,2013-07-15 19:50:00,
2013-07-15 15:55:00,83.8,72.1,30.15,NNW,340,0.0,8.0,68,0.00,,,0.00,Wunderground v.1.15,2013-07-15 19:55:00,
2013-07-15 16:05:00,83.5,73.1,30.15,North,5,0.0,8.0,71,0.00,,,0.00,Wunderground v.1.15,2013-07-15 20:05:00,
2013-07-15 16:10:00,83.4,73.0,30.15,North,360,0.0,8.0,71,0.00,,,0.00,Wunderground v.1.15,2013-07-15 20:10:00,
2013-07-15 16:15:00,83.1,72.3,30.15,North,360,0.0,8.0,70,0.00,,,0.00,Wunderground v.1.15,2013-07-15 20:15:00,
2013-07-15 16:20:00,82.9,72.5,30.15,North,360,0.0,8.0,71,0.00,,,0.00,Wunderground v.1.15,2013-07-15 20:20:00,
2013-07-15 16:25:00,82.9,72.9,30.15,North,360,0.0,8.0,72,0.00,,,0.00,Wunderground v.1.15,2013-07-15 20:25:00,
2013-07-15 16:35:00,83.0,72.6,30.14,NE,36,0.0,8.0,71,0.00,,,0.00,Wunderground v.1.15,2013-07-15 20:35:00,
2013-07-15 16:45:00,83.0,72.2,30.14,NNE,23,0.0,8.0,70,0.00,,,0.00,Wunderground v.1.15,2013-07-15 20:45:00,
2013-07-15 16:55:00,82.8,72.4,30.14,North,11,0.0,8.0,71,0.00,,,0.00,Wunderground v.1.15,2013-07-15 20:55:00,
2013-07-15 17:00:00,82.8,72.4,30.14,North,11,0.0,8.0,71,0.00,,,0.00,Wunderground v.1.15,2013-07-15 21:00:00,
2013-07-15 17:10:00,82.6,73.9,30.14,North,10,0.0,8.0,75,0.00,,,0.00,Wunderground v.1.15,2013-07-15 21:10:00,
2013-07-15 17:15:00,82.4,73.7,30.13,North,10,0.0,8.0,75,0.00,,,0.00,Wunderground v.1.15,2013-07-15 21:15:00,
2013-07-15 17:25:00,82.2,73.5,30.13,North,355,0.0,8.0,75,0.00,,,0.00,Wunderground v.1.15,2013-07-15 21:25:00,
2013-07-15 17:35:00,82.2,73.5,30.13,North,355,0.0,8.0,75,0.00,,,0.00,Wunderground v.1.15,2013-07-15 21:35:00,
2013-07-15 17:40:00,82.3,73.6,30.13,North,355,0.0,8.0,75,0.00,,,0.00,Wunderground v.1.15,2013-07-15 21:40:00,
2013-07-15 17:45:00,82.2,74.3,30.13,North,355,0.0,8.0,77,0.00,,,0.00,Wunderground v.1.15,2013-07-15 21:45:00,
2013-07-15 17:50:00,82.1,74.9,30.13,North,355,0.0,8.0,79,0.00,,,0.00,Wunderground v.1.15,2013-07-15 21:50:00,
2013-07-15 18:00:00,82.3,73.6,30.13,NNE,15,0.0,8.0,75,0.00,,,0.00,Wunderground v.1.15,2013-07-15 22:00:00,
2013-07-15 18:05:00,82.3,73.6,30.13,NNE,15,0.0,8.0,75,0.00,,,0.00,Wunderground v.1.15,2013-07-15 22:05:00,
2013-07-15 18:15:00,82.1,72.6,30.12,North,5,0.0,8.0,73,0.00,,,0.00,Wunderground v.1.15,2013-07-15 22:15:00,
2013-07-15 18:20:00,82.2,73.1,30.13,North,5,0.0,8.0,74,0.00,,,0.00,Wunderground v.1.15,2013-07-15 22:20:00,
2013-07-15 18:25:00,82.1,74.2,30.12,North,5,0.0,8.0,77,0.00,,,0.00,Wunderground v.1.15,2013-07-15 22:25:00,
2013-07-15 18:30:00,81.9,73.2,30.12,North,5,0.0,8.0,75,0.00,,,0.00,Wunderground v.1.15,2013-07-15 22:30:00,
2013-07-15 18:35:00,81.6,74.5,30.12,North,5,0.0,8.0,79,0.00,,,0.00,Wunderground v.1.15,2013-07-15 22:35:00,
2013-07-15 18:45:00,81.2,73.3,30.12,NNE,22,0.0,8.0,77,0.00,,,0.00,Wunderground v.1.15,2013-07-15 22:45:00,
2013-07-15 18:50:00,80.9,74.1,30.12,NNE,22,0.0,8.0,80,0.00,,,0.00,Wunderground v.1.15,2013-07-15 22:50:00,
2013-07-15 19:00:00,80.2,73.8,30.12,NNE,22,0.0,8.0,81,0.00,,,0.00,Wunderground v.1.15,2013-07-15 23:00:00,
2013-07-15 19:10:00,79.6,73.6,30.12,NNE,22,0.0,8.0,82,0.00,,,0.00,Wunderground v.1.15,2013-07-15 23:10:00,
2013-07-15 19:15:00,79.4,73.4,30.13,NNE,22,0.0,8.0,82,0.00,,,0.00,Wunderground v.1.15,2013-07-15 23:15:00,
2013-07-15 19:20:00,79.1,73.1,30.13,NNE,22,0.0,8.0,82,0.00,,,0.00,Wunderground v.1.15,2013-07-15 23:20:00,
2013-07-15 19:25:00,78.7,72.7,30.13,NNE,22,0.0,8.0,82,0.00,,,0.00,Wunderground v.1.15,2013-07-15 23:25:00,
2013-07-15 19:30:00,78.4,73.2,30.12,NNE,22,0.0,8.0,84,0.00,,,0.00,Wunderground v.1.15,2013-07-15 23:30:00,
2013-07-15 19:35:00,78.0,73.1,30.12,NNE,22,0.0,8.0,85,0.00,,,0.00,Wunderground v.1.15,2013-07-15 23:35:00,
2013-07-15 19:45:00,77.5,72.6,30.13,NNE,22,0.0,8.0,85,0.00,,,0.00,Wunderground v.1.15,2013-07-15 23:45:00,
2013-07-15 19:55:00,76.9,73.1,30.13,NNE,22,0.0,8.0,88,0.00,,,0.00,Wunderground v.1.15,2013-07-15 23:55:00,
2013-07-15 20:05:00,76.2,72.7,30.13,NNE,22,0.0,8.0,89,0.00,,,0.00,Wunderground v.1.15,2013-07-16 00:05:00,
2013-07-15 20:10:00,75.9,72.1,30.13,NNE,22,0.0,8.0,88,0.00,,,0.00,Wunderground v.1.15,2013-07-16 00:10:00,
2013-07-15 20:15:00,75.7,71.9,30.13,NNE,22,0.0,8.0,88,0.00,,,0.00,Wunderground v.1.15,2013-07-16 00:15:00,
2013-07-15 20:20:00,75.6,72.1,30.13,NNE,22,0.0,8.0,89,0.00,,,0.00,Wunderground v.1.15,2013-07-16 00:20:00,
2013-07-15 20:30:00,75.3,71.8,30.13,NNE,22,0.0,8.0,89,0.00,,,0.00,Wunderground v.1.15,2013-07-16 00:30:00,
2013-07-15 20:35:00,75.1,71.3,30.13,NNE,22,0.0,8.0,88,0.00,,,0.00,Wunderground v.1.15,2013-07-16 00:35:00,
2013-07-15 20:40:00,75.0,71.9,30.13,NNE,22,0.0,8.0,90,0.00,,,0.00,Wunderground v.1.15,2013-07-16 00:40:00,
2013-07-15 20:45:00,74.7,71.2,30.13,NNE,22,0.0,8.0,89,0.00,,,0.00,Wunderground v.1.15,2013-07-16 00:45:00,
2013-07-15 20:50:00,74.5,71.0,30.13,NNE,22,0.0,8.0,89,0.00,,,0.00,Wunderground v.1.15,2013-07-16 00:50:00,
2013-07-15 20:55:00,74.3,71.2,30.13,NNE,22,0.0,8.0,90,0.00,,,0.00,Wunderground v.1.15,2013-07-16 00:55:00,
2013-07-15 21:00:00,74.2,71.4,30.13,NNE,22,0.0,8.0,91,0.00,,,0.00,Wunderground v.1.15,2013-07-16 01:00:00,
2013-07-15 21:05:00,73.9,71.1,30.13,NNE,22,0.0,8.0,91,0.00,,,0.00,Wunderground v.1.15,2013-07-16 01:05:00,
2013-07-15 21:10:00,73.8,71.0,30.14,NNE,22,0.0,8.0,91,0.00,,,0.00,Wunderground v.1.15,2013-07-16 01:10:00,
2013-07-15 21:20:00,73.5,71.0,30.14,NNE,22,0.0,8.0,92,0.00,,,0.00,Wunderground v.1.15,2013-07-16 01:20:00,
2013-07-15 21:25:00,73.4,70.6,30.14,NNE,22,0.0,8.0,91,0.00,,,0.00,Wunderground v.1.15,2013-07-16 01:25:00,
2013-07-15 21:30:00,73.4,70.3,30.14,North,351,0.0,8.0,90,0.00,,,0.00,Wunderground v.1.15,2013-07-16 01:30:00,
2013-07-15 21:40:00,73.7,70.3,30.14,North,351,0.0,8.0,89,0.00,,,0.00,Wunderground v.1.15,2013-07-16 01:40:00,
2013-07-15 21:45:00,73.9,70.8,30.14,North,351,0.0,8.0,90,0.00,,,0.00,Wunderground v.1.15,2013-07-16 01:45:00,
2013-07-15 21:50:00,73.9,70.5,30.14,North,351,0.0,8.0,89,0.00,,,0.00,Wunderground v.1.15,2013-07-16 01:50:00,
2013-07-15 21:55:00,74.0,70.6,30.15,North,351,0.0,8.0,89,0.00,,,0.00,Wunderground v.1.15,2013-07-16 01:55:00,
2013-07-15 22:00:00,74.1,70.3,30.15,North,351,0.0,8.0,88,0.00,,,0.00,Wunderground v.1.15,2013-07-16 02:00:00,
2013-07-15 22:05:00,74.1,70.3,30.15,North,351,0.0,8.0,88,0.00,,,0.00,Wunderground v.1.15,2013-07-16 02:05:00,
2013-07-15 22:10:00,74.0,69.9,30.15,North,351,0.0,8.0,87,0.00,,,0.00,Wunderground v.1.15,2013-07-16 02:10:00,
2013-07-15 22:20:00,74.0,70.2,30.15,North,351,0.0,8.0,88,0.00,,,0.00,Wunderground v.1.15,2013-07-16 02:20:00,
2013-07-15 22:30:00,73.8,69.7,30.15,North,351,0.0,8.0,87,0.00,,,0.00,Wunderground v.1.15,2013-07-16 02:30:00,
2013-07-15 22:45:00,73.3,69.9,30.15,North,351,0.0,8.0,89,0.00,,,0.00,Wunderground v.1.15,2013-07-16 02:45:00,
2013-07-15 22:50:00,73.0,69.9,30.15,North,351,0.0,8.0,90,0.00,,,0.00,Wunderground v.1.15,2013-07-16 02:50:00,
2013-07-15 22:55:00,72.8,69.7,30.14,North,351,0.0,8.0,90,0.00,,,0.00,Wunderground v.1.15,2013-07-16 02:55:00,
2013-07-15 23:00:00,72.6,69.8,30.15,North,351,0.0,8.0,91,0.00,,,0.00,Wunderground v.1.15,2013-07-16 03:00:00,
2013-07-15 23:05:00,72.6,69.5,30.14,NNW,344,0.0,8.0,90,0.00,,,0.00,Wunderground v.1.15,2013-07-16 03:05:00,
2013-07-15 23:10:00,72.6,69.8,30.14,NNW,344,0.0,8.0,91,0.00,,,0.00,Wunderground v.1.15,2013-07-16 03:10:00,
2013-07-15 23:15:00,72.6,69.8,30.14,NNW,344,0.0,8.0,91,0.00,,,0.00,Wunderground v.1.15,2013-07-16 03:15:00,
2013-07-15 23:20:00,72.6,69.5,30.14,ENE,57,0.0,8.0,90,0.00,,,0.00,Wunderground v.1.15,2013-07-16 03:20:00,
2013-07-15 23:25:00,73.0,69.9,30.15,ENE,57,0.0,8.0,90,0.00,,,0.00,Wunderground v.1.15,2013-07-16 03:25:00,
2013-07-15 23:30:00,73.0,69.6,30.14,ENE,57,0.0,8.0,89,0.00,,,0.00,Wunderground v.1.15,2013-07-16 03:30:00,
2013-07-15 23:40:00,73.1,69.3,30.15,NE,39,0.0,8.0,88,0.00,,,0.00,Wunderground v.1.15,2013-07-16 03:40:00,
2013-07-15 23:45:00,73.4,69.3,30.15,NNE,21,0.0,8.0,87,0.00,,,0.00,Wunderground v.1.15,2013-07-16 03:45:00,
2013-07-15 23:50:00,73.7,69.2,30.15,NNE,21,0.0,8.0,86,0.00,,,0.00,Wunderground v.1.15,2013-07-16 03:50:00,
2013-07-15 23:55:00,73.8,69.0,30.15,NNE,22,0.0,8.0,85,0.00,,,0.00,Wunderground v.1.15,2013-07-16 03:55:00,